Wetterdaten: Montag, 14.09.2015
Datum Zeit Auen-Temp. Temp gefhlt Luftfeuchte Luftdruck Regen Wind Richtung Richtung Taupunkt Windben
14.09.2015 00:00 11,6 C 11,7 C 81 % 1009,0 hPa 0,0 mm 0,8 km/h (0 Bft) NW 315 8,5 C 0,0 km/h (0 Bft)
14.09.2015 00:05 11,4 C 11,7 C 80 % 1009,0 hPa 0,0 mm 0,5 km/h (0 Bft) W-SW 247 8,1 C 0,0 km/h (0 Bft)
14.09.2015 00:10 12,2 C 12,4 C 78 % 1009,0 hPa 0,0 mm 1,6 km/h (1 Bft) S-SO 157 8,5 C 6,0 km/h (2 Bft)
14.09.2015 00:15 13,0 C 13,3 C 76 % 1009,0 hPa 0,0 mm 2,1 km/h (1 Bft) O-SO 112 8,9 C 0,0 km/h (0 Bft)
14.09.2015 00:20 14,0 C 13,9 C 73 % 1009,0 hPa 0,0 mm 2,1 km/h (1 Bft) SO 135 9,2 C 9,1 km/h (2 Bft)
14.09.2015 00:25 14,1 C 14,1 C 71 % 1009,0 hPa 0,0 mm 1,8 km/h (1 Bft) O-SO 112 8,9 C 3,4 km/h (1 Bft)
14.09.2015 00:30 14,7 C 15,0 C 68 % 1009,0 hPa 0,0 mm 2,1 km/h (1 Bft) S 180 8,9 C 3,1 km/h (1 Bft)
14.09.2015 00:35 14,3 C 14,8 C 68 % 1008,9 hPa 0,0 mm 1,8 km/h (1 Bft) O-SO 112 8,5 C 0,0 km/h (0 Bft)
14.09.2015 00:40 13,7 C 14,6 C 69 % 1008,9 hPa 0,0 mm 0,3 km/h (0 Bft) O-SO 112 8,1 C 0,0 km/h (0 Bft)
14.09.2015 00:45 13,7 C 14,5 C 70 % 1008,9 hPa 0,0 mm 0,0 km/h (0 Bft) S 180 8,3 C 0,0 km/h (0 Bft)
14.09.2015 00:50 13,5 C 14,3 C 70 % 1008,9 hPa 0,0 mm 0,0 km/h (0 Bft) S 180 8,1 C 0,0 km/h (0 Bft)
14.09.2015 00:55 13,2 C 14,0 C 71 % 1008,6 hPa 0,0 mm 0,0 km/h (0 Bft) O-SO 112 8,1 C 0,0 km/h (0 Bft)
14.09.2015 01:00 13,0 C 13,6 C 71 % 1008,6 hPa 0,0 mm 0,0 km/h (0 Bft) O-SO 112 7,9 C 0,0 km/h (0 Bft)
14.09.2015 01:05 13,5 C 13,9 C 71 % 1008,6 hPa 0,0 mm 0,5 km/h (0 Bft) O-SO 112 8,3 C 5,2 km/h (1 Bft)
14.09.2015 01:10 15,0 C 15,0 C 65 % 1008,6 hPa 0,0 mm 3,1 km/h (1 Bft) SO 135 8,5 C 5,2 km/h (1 Bft)
14.09.2015 01:15 15,3 C 15,3 C 63 % 1008,2 hPa 0,0 mm 3,9 km/h (1 Bft) SO 135 8,3 C 3,9 km/h (1 Bft)
14.09.2015 01:20 15,5 C 15,6 C 62 % 1008,2 hPa 0,0 mm 3,6 km/h (1 Bft) SO 135 8,3 C 4,7 km/h (1 Bft)
14.09.2015 01:25 15,7 C 15,7 C 61 % 1008,2 hPa 0,0 mm 3,6 km/h (1 Bft) SO 135 8,2 C 3,9 km/h (1 Bft)
14.09.2015 01:30 15,6 C 16,0 C 61 % 1008,2 hPa 0,0 mm 2,8 km/h (1 Bft) SO 135 8,1 C 0,0 km/h (0 Bft)
14.09.2015 01:35 15,4 C 15,9 C 62 % 1008,2 hPa 0,0 mm 1,3 km/h (1 Bft) O-SO 112 8,2 C 0,0 km/h (0 Bft)
14.09.2015 01:40 15,3 C 15,6 C 63 % 1008,2 hPa 0,0 mm 0,3 km/h (0 Bft) SO 135 8,3 C 0,0 km/h (0 Bft)
14.09.2015 01:45 15,5 C 15,6 C 63 % 1008,2 hPa 0,0 mm 0,8 km/h (0 Bft) SW 225 8,5 C 5,7 km/h (1 Bft)
14.09.2015 01:50 16,4 C 16,4 C 60 % 1008,2 hPa 0,0 mm 2,3 km/h (1 Bft) SW 225 8,6 C 0,0 km/h (0 Bft)
14.09.2015 01:55 16,4 C 16,6 C 60 % 1007,8 hPa 0,0 mm 2,6 km/h (1 Bft) O 90 8,6 C 4,1 km/h (1 Bft)
14.09.2015 02:00 16,4 C 16,8 C 59 % 1007,8 hPa 0,0 mm 1,6 km/h (1 Bft) W-SW 247 8,4 C 0,0 km/h (0 Bft)
14.09.2015 02:05 16,2 C 16,8 C 59 % 1007,8 hPa 0,0 mm 1,3 km/h (1 Bft) S 180 8,2 C 0,0 km/h (0 Bft)
14.09.2015 02:10 16,2 C 16,6 C 60 % 1007,8 hPa 0,0 mm 0,0 km/h (0 Bft) S 180 8,4 C 0,0 km/h (0 Bft)
14.09.2015 02:15 16,2 C 16,4 C 60 % 1007,6 hPa 0,0 mm 0,0 km/h (0 Bft) S 180 8,4 C 0,0 km/h (0 Bft)
14.09.2015 02:20 15,9 C 16,4 C 61 % 1007,6 hPa 0,0 mm 0,0 km/h (0 Bft) SO 135 8,4 C 0,0 km/h (0 Bft)
14.09.2015 02:25 16,0 C 16,3 C 61 % 1007,6 hPa 0,0 mm 0,0 km/h (0 Bft) SO 135 8,5 C 0,0 km/h (0 Bft)
14.09.2015 02:30 16,0 C 16,3 C 60 % 1007,6 hPa 0,0 mm 0,3 km/h (0 Bft) SO 135 8,2 C 0,0 km/h (0 Bft)
14.09.2015 02:35 16,1 C 16,2 C 60 % 1007,7 hPa 0,0 mm 0,8 km/h (0 Bft) S-SO 157 8,3 C 3,9 km/h (1 Bft)
14.09.2015 02:40 15,8 C 16,3 C 63 % 1007,7 hPa 0,0 mm 1,6 km/h (1 Bft) S-SW 202 8,8 C 6,0 km/h (2 Bft)
14.09.2015 02:45 15,7 C 16,3 C 64 % 1007,7 hPa 0,0 mm 2,3 km/h (1 Bft) O-SO 112 8,9 C 3,4 km/h (1 Bft)
14.09.2015 02:50 15,6 C 16,1 C 64 % 1007,7 hPa 0,0 mm 1,8 km/h (1 Bft) S 180 8,8 C 0,0 km/h (0 Bft)
14.09.2015 02:55 15,4 C 16,0 C 64 % 1007,9 hPa 0,0 mm 0,5 km/h (0 Bft) S-SO 157 8,6 C 0,0 km/h (0 Bft)
14.09.2015 03:00 15,2 C 15,7 C 64 % 1007,9 hPa 0,0 mm 0,3 km/h (0 Bft) S 180 8,4 C 0,0 km/h (0 Bft)
14.09.2015 03:05 15,2 C 15,6 C 64 % 1007,9 hPa 0,0 mm 0,0 km/h (0 Bft) S-SO 157 8,4 C 0,0 km/h (0 Bft)
14.09.2015 03:10 15,2 C 15,6 C 64 % 1007,9 hPa 0,0 mm 0,0 km/h (0 Bft) S 180 8,4 C 0,0 km/h (0 Bft)
14.09.2015 03:15 15,4 C 15,6 C 64 % 1007,4 hPa 0,0 mm 0,0 km/h (0 Bft) S 180 8,6 C 0,0 km/h (0 Bft)
14.09.2015 03:20 15,4 C 15,7 C 64 % 1007,4 hPa 0,0 mm 0,3 km/h (0 Bft) NW 315 8,6 C 0,0 km/h (0 Bft)
14.09.2015 03:25 15,3 C 15,8 C 64 % 1007,4 hPa 0,0 mm 2,1 km/h (1 Bft) NW 315 8,5 C 7,3 km/h (2 Bft)
14.09.2015 03:30 15,4 C 15,6 C 64 % 1007,4 hPa 0,0 mm 2,6 km/h (1 Bft) W 270 8,6 C 9,6 km/h (2 Bft)
14.09.2015 03:35 15,5 C 15,6 C 63 % 1007,6 hPa 0,0 mm 1,8 km/h (1 Bft) W 270 8,5 C 5,2 km/h (1 Bft)
14.09.2015 03:40 15,9 C 16,0 C 63 % 1007,6 hPa 0,0 mm 3,1 km/h (1 Bft) S-SO 157 8,9 C 3,4 km/h (1 Bft)
14.09.2015 03:45 16,0 C 16,2 C 60 % 1007,6 hPa 0,0 mm 4,4 km/h (1 Bft) S 180 8,2 C 5,4 km/h (1 Bft)
14.09.2015 03:50 16,0 C 16,4 C 61 % 1007,6 hPa 0,0 mm 4,4 km/h (1 Bft) S 180 8,5 C 5,7 km/h (1 Bft)
14.09.2015 03:55 15,7 C 16,5 C 63 % 1007,6 hPa 0,0 mm 4,4 km/h (1 Bft) S 180 8,7 C 3,6 km/h (1 Bft)
14.09.2015 04:00 16,0 C 16,5 C 62 % 1007,6 hPa 0,0 mm 6,7 km/h (2 Bft) NO 45 8,7 C 14,8 km/h (3 Bft)
14.09.2015 04:05 15,9 C 16,4 C 62 % 1007,6 hPa 0,0 mm 7,0 km/h (2 Bft) S-SW 202 8,6 C 9,8 km/h (2 Bft)
14.09.2015 04:10 15,5 C 16,0 C 64 % 1007,6 hPa 0,0 mm 6,5 km/h (2 Bft) W-SW 247 8,7 C 19,7 km/h (3 Bft)
14.09.2015 04:11 15,3 C 15,6 C 65 % 1007,9 hPa 0,0 mm 7,0 km/h (2 Bft) SW 225 8,8 C 10,4 km/h (2 Bft)
14.09.2015 04:15 15,3 C 15,6 C 65 % 1007,9 hPa 0,0 mm 7,0 km/h (2 Bft) SW 225 8,8 C 10,4 km/h (2 Bft)
14.09.2015 04:20 15,1 C 15,3 C 66 % 1007,9 hPa 0,0 mm 5,4 km/h (1 Bft) NW 315 8,8 C 15,0 km/h (3 Bft)
14.09.2015 04:25 15,2 C 15,2 C 68 % 1007,9 hPa 0,0 mm 6,7 km/h (2 Bft) W-SW 247 9,3 C 15,0 km/h (3 Bft)
14.09.2015 04:30 15,2 C 15,1 C 68 % 1007,9 hPa 0,0 mm 8,0 km/h (2 Bft) NW 315 9,3 C 11,9 km/h (2 Bft)
14.09.2015 04:35 15,1 C 15,1 C 68 % 1008,1 hPa 0,0 mm 6,2 km/h (2 Bft) N-NW 337 9,2 C 7,8 km/h (2 Bft)
14.09.2015 04:40 15,1 C 15,0 C 69 % 1008,1 hPa 0,0 mm 5,4 km/h (1 Bft) SW 225 9,5 C 25,4 km/h (4 Bft)
14.09.2015 04:45 15,1 C 15,0 C 71 % 1008,1 hPa 0,0 mm 7,3 km/h (2 Bft) W-SW 247 9,9 C 10,1 km/h (2 Bft)
14.09.2015 04:50 15,1 C 15,1 C 73 % 1008,1 hPa 0,0 mm 8,5 km/h (2 Bft) W 270 10,3 C 30,3 km/h (5 Bft)
14.09.2015 04:55 15,2 C 15,1 C 73 % 1008,2 hPa 0,0 mm 7,8 km/h (2 Bft) NW 315 10,4 C 8,0 km/h (2 Bft)
14.09.2015 05:00 15,0 C 14,9 C 74 % 1008,2 hPa 0,0 mm 8,0 km/h (2 Bft) NW 315 10,4 C 9,3 km/h (2 Bft)
14.09.2015 05:05 14,9 C 14,8 C 75 % 1008,2 hPa 0,0 mm 6,7 km/h (2 Bft) NW 315 10,5 C 5,4 km/h (1 Bft)
14.09.2015 05:10 14,8 C 14,5 C 76 % 1008,2 hPa 0,0 mm 7,5 km/h (2 Bft) W-NW 292 10,6 C 13,5 km/h (3 Bft)
14.09.2015 05:15 14,6 C 14,3 C 77 % 1008,2 hPa 0,0 mm 8,3 km/h (2 Bft) NW 315 10,6 C 14,0 km/h (3 Bft)
14.09.2015 05:20 14,6 C 14,3 C 78 % 1008,2 hPa 0,0 mm 7,8 km/h (2 Bft) SW 225 10,8 C 12,2 km/h (2 Bft)
14.09.2015 05:25 14,5 C 14,1 C 78 % 1008,2 hPa 0,0 mm 6,5 km/h (2 Bft) W-NW 292 10,7 C 5,7 km/h (1 Bft)
14.09.2015 05:30 14,4 C 14,0 C 79 % 1008,2 hPa 0,0 mm 6,5 km/h (2 Bft) S 180 10,8 C 10,6 km/h (2 Bft)
14.09.2015 05:35 14,3 C 13,9 C 79 % 1008,6 hPa 0,0 mm 6,5 km/h (2 Bft) SW 225 10,7 C 6,0 km/h (2 Bft)
14.09.2015 05:40 14,2 C 13,9 C 79 % 1008,6 hPa 0,0 mm 5,4 km/h (1 Bft) W-SW 247 10,6 C 6,2 km/h (2 Bft)
14.09.2015 05:45 14,2 C 14,0 C 79 % 1008,6 hPa 0,0 mm 5,7 km/h (1 Bft) W-NW 292 10,6 C 6,7 km/h (2 Bft)
14.09.2015 05:50 14,2 C 14,1 C 80 % 1008,6 hPa 0,0 mm 7,3 km/h (2 Bft) S 180 10,8 C 3,6 km/h (1 Bft)
14.09.2015 05:55 14,1 C 14,0 C 80 % 1008,6 hPa 0,0 mm 6,7 km/h (2 Bft) SW 225 10,7 C 15,3 km/h (3 Bft)
14.09.2015 06:00 14,1 C 14,0 C 80 % 1008,6 hPa 0,0 mm 6,2 km/h (2 Bft) S 180 10,7 C 7,0 km/h (2 Bft)
14.09.2015 06:05 14,0 C 13,9 C 80 % 1008,6 hPa 0,0 mm 8,3 km/h (2 Bft) S-SO 157 10,6 C 18,6 km/h (3 Bft)
14.09.2015 06:10 13,8 C 13,7 C 80 % 1008,6 hPa 0,0 mm 7,3 km/h (2 Bft) W 270 10,4 C 2,6 km/h (1 Bft)
14.09.2015 06:15 13,8 C 13,7 C 80 % 1009,4 hPa 0,0 mm 7,8 km/h (2 Bft) W 270 10,4 C 8,5 km/h (2 Bft)
14.09.2015 06:20 13,7 C 13,6 C 80 % 1009,4 hPa 0,0 mm 9,3 km/h (2 Bft) W-SW 247 10,3 C 5,4 km/h (1 Bft)
14.09.2015 06:25 13,6 C 13,5 C 80 % 1009,4 hPa 0,0 mm 12,7 km/h (3 Bft) SW 225 10,2 C 13,2 km/h (3 Bft)
14.09.2015 06:30 13,4 C 13,3 C 79 % 1009,4 hPa 0,0 mm 12,4 km/h (3 Bft) S-SO 157 9,8 C 30,8 km/h (5 Bft)
14.09.2015 06:35 13,2 C 13,0 C 80 % 1009,4 hPa 0,0 mm 9,8 km/h (2 Bft) W-SW 247 9,8 C 9,6 km/h (2 Bft)
14.09.2015 06:40 12,8 C 12,6 C 81 % 1009,4 hPa 0,0 mm 8,0 km/h (2 Bft) O-NO 67 9,6 C 4,7 km/h (1 Bft)
14.09.2015 06:45 12,7 C 12,4 C 82 % 1009,4 hPa 0,0 mm 9,3 km/h (2 Bft) NW 315 9,7 C 4,1 km/h (1 Bft)
14.09.2015 06:50 12,5 C 12,2 C 82 % 1009,4 hPa 0,0 mm 8,3 km/h (2 Bft) S 180 9,5 C 4,7 km/h (1 Bft)
14.09.2015 06:55 12,4 C 12,1 C 82 % 1009,5 hPa 0,0 mm 6,2 km/h (2 Bft) SW 225 9,4 C 5,2 km/h (1 Bft)
14.09.2015 07:00 12,3 C 12,0 C 83 % 1009,5 hPa 0,0 mm 6,2 km/h (2 Bft) S 180 9,5 C 7,8 km/h (2 Bft)
14.09.2015 07:05 12,2 C 11,9 C 83 % 1009,5 hPa 0,0 mm 6,2 km/h (2 Bft) S-SO 157 9,4 C 5,7 km/h (1 Bft)
14.09.2015 07:10 12,1 C 11,8 C 84 % 1009,5 hPa 0,0 mm 6,5 km/h (2 Bft) W 270 9,5 C 0,0 km/h (0 Bft)
14.09.2015 07:15 12,0 C 11,7 C 84 % 1009,6 hPa 0,0 mm 6,7 km/h (2 Bft) W 270 9,4 C 9,1 km/h (2 Bft)
14.09.2015 07:20 11,8 C 11,6 C 85 % 1009,6 hPa 0,0 mm 6,2 km/h (2 Bft) W-NW 292 9,4 C 3,6 km/h (1 Bft)
14.09.2015 07:25 11,8 C 11,5 C 85 % 1009,6 hPa 0,0 mm 6,2 km/h (2 Bft) N-NW 337 9,4 C 13,7 km/h (3 Bft)
14.09.2015 07:30 11,7 C 11,5 C 85 % 1009,6 hPa 0,0 mm 5,4 km/h (1 Bft) SO 135 9,3 C 14,0 km/h (3 Bft)
14.09.2015 07:35 11,7 C 11,5 C 86 % 1009,7 hPa 0,0 mm 5,7 km/h (1 Bft) N-NO 22 9,4 C 10,6 km/h (2 Bft)
14.09.2015 07:40 11,7 C 11,5 C 86 % 1009,7 hPa 0,0 mm 6,7 km/h (2 Bft) N-NW 337 9,4 C 5,2 km/h (1 Bft)
14.09.2015 07:45 11,7 C 11,5 C 86 % 1009,7 hPa 0,0 mm 7,3 km/h (2 Bft) SW 225 9,4 C 15,3 km/h (3 Bft)
14.09.2015 07:50 11,7 C 11,5 C 86 % 1009,7 hPa 0,0 mm 5,2 km/h (1 Bft) S-SW 202 9,4 C 4,4 km/h (1 Bft)
14.09.2015 07:55 11,7 C 11,5 C 86 % 1009,9 hPa 0,7 mm 3,9 km/h (1 Bft) S 180 9,4 C 0,0 km/h (0 Bft)
14.09.2015 08:00 11,7 C 11,5 C 86 % 1009,9 hPa 0,0 mm 2,8 km/h (1 Bft) W 270 9,4 C 2,6 km/h (1 Bft)
14.09.2015 08:05 11,8 C 11,6 C 86 % 1009,9 hPa 0,0 mm 2,8 km/h (1 Bft) S 180 9,5 C 5,4 km/h (1 Bft)
14.09.2015 08:10 12,0 C 11,8 C 86 % 1009,9 hPa 0,0 mm 3,6 km/h (1 Bft) S 180 9,7 C 10,1 km/h (2 Bft)
14.09.2015 08:15 12,0 C 11,8 C 86 % 1009,8 hPa 0,7 mm 3,6 km/h (1 Bft) S-SW 202 9,7 C 6,0 km/h (2 Bft)
14.09.2015 08:20 12,0 C 11,8 C 86 % 1009,8 hPa 0,0 mm 4,4 km/h (1 Bft) S-SO 157 9,7 C 4,4 km/h (1 Bft)
14.09.2015 08:25 12,1 C 11,9 C 86 % 1009,8 hPa 0,0 mm 5,2 km/h (1 Bft) O-SO 112 9,8 C 4,4 km/h (1 Bft)
14.09.2015 08:30 12,1 C 11,9 C 86 % 1009,8 hPa 0,0 mm 6,0 km/h (2 Bft) SW 225 9,8 C 12,2 km/h (2 Bft)
14.09.2015 08:35 12,1 C 11,9 C 86 % 1009,9 hPa 0,0 mm 5,7 km/h (1 Bft) SW 225 9,8 C 14,5 km/h (3 Bft)
14.09.2015 08:40 12,1 C 11,8 C 85 % 1009,9 hPa 0,0 mm 7,5 km/h (2 Bft) W-SW 247 9,7 C 0,0 km/h (0 Bft)
14.09.2015 08:45 12,2 C 11,9 C 85 % 1009,9 hPa 0,0 mm 7,8 km/h (2 Bft) S-SW 202 9,8 C 12,4 km/h (3 Bft)
14.09.2015 08:50 12,3 C 12,0 C 84 % 1009,9 hPa 0,0 mm 7,0 km/h (2 Bft) W 270 9,7 C 8,8 km/h (2 Bft)
14.09.2015 08:55 12,4 C 12,0 C 84 % 1009,9 hPa 0,0 mm 8,5 km/h (2 Bft) SW 225 9,8 C 13,7 km/h (3 Bft)
14.09.2015 09:00 12,5 C 12,1 C 83 % 1009,9 hPa 0,0 mm 8,5 km/h (2 Bft) W-SW 247 9,7 C 10,1 km/h (2 Bft)
14.09.2015 09:05 12,6 C 12,2 C 83 % 1009,9 hPa 0,0 mm 7,5 km/h (2 Bft) SW 225 9,8 C 16,1 km/h (3 Bft)
14.09.2015 09:10 12,6 C 12,2 C 82 % 1009,9 hPa 0,7 mm 6,0 km/h (2 Bft) S-SO 157 9,6 C 8,0 km/h (2 Bft)
14.09.2015 09:15 12,6 C 12,3 C 79 % 1009,9 hPa 0,0 mm 4,1 km/h (1 Bft) W-SW 247 9,1 C 7,8 km/h (2 Bft)
14.09.2015 09:20 12,6 C 12,2 C 81 % 1009,9 hPa 0,0 mm 4,4 km/h (1 Bft) W 270 9,4 C 11,9 km/h (2 Bft)
14.09.2015 09:25 12,6 C 12,2 C 81 % 1009,9 hPa 0,0 mm 5,4 km/h (1 Bft) SW 225 9,4 C 11,9 km/h (2 Bft)
14.09.2015 09:30 12,6 C 12,2 C 81 % 1009,9 hPa 0,0 mm 4,1 km/h (1 Bft) S 180 9,4 C 5,2 km/h (1 Bft)
14.09.2015 09:35 12,5 C 12,2 C 81 % 1010,2 hPa 0,0 mm 3,4 km/h (1 Bft) W-NW 292 9,3 C 3,1 km/h (1 Bft)
14.09.2015 09:40 12,4 C 12,1 C 81 % 1010,2 hPa 0,0 mm 3,6 km/h (1 Bft) W-SW 247 9,2 C 6,5 km/h (2 Bft)
14.09.2015 09:45 12,3 C 12,0 C 81 % 1010,2 hPa 0,0 mm 4,4 km/h (1 Bft) W-NW 292 9,1 C 0,0 km/h (0 Bft)
14.09.2015 09:50 12,3 C 12,0 C 82 % 1010,2 hPa 0,0 mm 4,1 km/h (1 Bft) SW 225 9,3 C 9,6 km/h (2 Bft)
14.09.2015 09:55 12,3 C 12,2 C 79 % 1010,3 hPa 0,0 mm 3,6 km/h (1 Bft) O-SO 112 8,8 C 2,8 km/h (1 Bft)
14.09.2015 10:00 12,4 C 12,2 C 79 % 1010,3 hPa 0,0 mm 4,7 km/h (1 Bft) SW 225 8,9 C 9,3 km/h (2 Bft)
14.09.2015 10:05 12,4 C 12,1 C 81 % 1010,3 hPa 0,0 mm 4,9 km/h (1 Bft) W-SW 247 9,2 C 10,4 km/h (2 Bft)
14.09.2015 10:10 12,3 C 12,0 C 81 % 1010,3 hPa 0,7 mm 6,5 km/h (2 Bft) W-NW 292 9,1 C 6,0 km/h (2 Bft)
14.09.2015 10:13 12,2 C 12,0 C 79 % 1010,5 hPa 0,0 mm 5,7 km/h (1 Bft) W-NW 292 8,7 C 4,4 km/h (1 Bft)
14.09.2015 10:15 12,2 C 12,0 C 79 % 1010,5 hPa 0,0 mm 5,7 km/h (1 Bft) W-NW 292 8,7 C 4,4 km/h (1 Bft)
14.09.2015 10:20 12,2 C 12,0 C 82 % 1010,5 hPa 0,0 mm 2,8 km/h (1 Bft) SW 225 9,2 C 0,0 km/h (0 Bft)
14.09.2015 10:25 12,1 C 11,9 C 82 % 1010,5 hPa 0,0 mm 3,6 km/h (1 Bft) W 270 9,1 C 12,4 km/h (3 Bft)
14.09.2015 10:30 12,0 C 11,7 C 82 % 1010,5 hPa 0,7 mm 4,4 km/h (1 Bft) S-SW 202 9,0 C 0,0 km/h (0 Bft)
14.09.2015 10:35 11,9 C 11,7 C 80 % 1010,2 hPa 0,0 mm 4,9 km/h (1 Bft) S 180 8,6 C 6,7 km/h (2 Bft)
14.09.2015 10:40 11,9 C 11,7 C 82 % 1010,2 hPa 0,0 mm 3,1 km/h (1 Bft) S 180 8,9 C 0,0 km/h (0 Bft)
14.09.2015 10:45 11,8 C 11,7 C 80 % 1010,2 hPa 0,7 mm 2,6 km/h (1 Bft) SW 225 8,5 C 3,9 km/h (1 Bft)
14.09.2015 10:50 11,7 C 11,5 C 83 % 1010,2 hPa 0,0 mm 1,3 km/h (1 Bft) SW 225 8,9 C 0,0 km/h (0 Bft)
14.09.2015 10:55 11,6 C 11,4 C 83 % 1010,7 hPa 0,0 mm 1,3 km/h (1 Bft) W 270 8,8 C 0,0 km/h (0 Bft)
14.09.2015 11:00 11,5 C 11,3 C 83 % 1010,7 hPa 0,7 mm 1,0 km/h (0 Bft) W 270 8,7 C 0,0 km/h (0 Bft)
14.09.2015 11:05 11,4 C 11,2 C 83 % 1010,7 hPa 0,0 mm 2,3 km/h (1 Bft) W 270 8,6 C 0,0 km/h (0 Bft)
14.09.2015 11:10 11,2 C 11,0 C 84 % 1010,7 hPa 0,7 mm 2,3 km/h (1 Bft) O-SO 112 8,6 C 0,0 km/h (0 Bft)
14.09.2015 11:15 11,0 C 10,9 C 85 % 1010,4 hPa 0,0 mm 0,8 km/h (0 Bft) O-NO 67 8,6 C 0,0 km/h (0 Bft)
14.09.2015 11:20 11,0 C 10,9 C 86 % 1010,4 hPa 0,0 mm 0,5 km/h (0 Bft) NW 315 8,7 C 0,0 km/h (0 Bft)
14.09.2015 11:25 11,1 C 11,0 C 86 % 1010,4 hPa 0,7 mm 0,5 km/h (0 Bft) N-NO 22 8,8 C 0,0 km/h (0 Bft)
14.09.2015 11:30 11,1 C 11,0 C 86 % 1010,4 hPa 0,0 mm 0,3 km/h (0 Bft) O-NO 67 8,8 C 0,0 km/h (0 Bft)
14.09.2015 11:35 11,0 C 10,9 C 86 % 1010,2 hPa 0,0 mm 0,0 km/h (0 Bft) O-NO 67 8,7 C 0,0 km/h (0 Bft)
14.09.2015 11:40 11,0 C 11,0 C 83 % 1010,2 hPa 0,7 mm 0,5 km/h (0 Bft) W 270 8,2 C 0,0 km/h (0 Bft)
14.09.2015 11:45 11,0 C 10,9 C 86 % 1010,2 hPa 0,0 mm 0,5 km/h (0 Bft) N-NO 22 8,7 C 2,8 km/h (1 Bft)
14.09.2015 11:50 10,9 C 10,9 C 83 % 1010,2 hPa 0,7 mm 0,0 km/h (0 Bft) NW 315 8,1 C 0,0 km/h (0 Bft)
14.09.2015 11:55 10,9 C 10,8 C 87 % 1010,2 hPa 0,0 mm 0,5 km/h (0 Bft) O-NO 67 8,8 C 0,0 km/h (0 Bft)
14.09.2015 12:00 10,9 C 10,8 C 87 % 1010,2 hPa 0,7 mm 1,0 km/h (0 Bft) O-NO 67 8,8 C 6,2 km/h (2 Bft)
14.09.2015 12:05 10,9 C 10,9 C 84 % 1010,2 hPa 0,7 mm 1,0 km/h (0 Bft) NO 45 8,3 C 3,4 km/h (1 Bft)
14.09.2015 12:10 11,0 C 11,2 C 84 % 1010,2 hPa 0,7 mm 1,8 km/h (1 Bft) O-NO 67 8,4 C 5,2 km/h (1 Bft)
14.09.2015 12:15 11,2 C 11,6 C 84 % 1010,0 hPa 0,0 mm 1,6 km/h (1 Bft) N-NW 337 8,6 C 3,4 km/h (1 Bft)
14.09.2015 12:20 11,6 C 12,0 C 84 % 1010,0 hPa 0,0 mm 2,1 km/h (1 Bft) NW 315 9,0 C 3,6 km/h (1 Bft)
14.09.2015 12:25 11,8 C 12,2 C 84 % 1010,0 hPa 0,0 mm 2,3 km/h (1 Bft) NW 315 9,2 C 3,9 km/h (1 Bft)
14.09.2015 12:30 11,9 C 12,2 C 84 % 1010,0 hPa 0,0 mm 1,8 km/h (1 Bft) W-NW 292 9,3 C 4,9 km/h (1 Bft)
14.09.2015 12:35 12,0 C 12,2 C 84 % 1010,3 hPa 0,0 mm 1,0 km/h (0 Bft) SW 225 9,4 C 0,0 km/h (0 Bft)
14.09.2015 12:40 11,9 C 12,1 C 84 % 1010,3 hPa 0,0 mm 0,3 km/h (0 Bft) O-SO 112 9,3 C 0,0 km/h (0 Bft)
14.09.2015 12:45 11,8 C 12,0 C 84 % 1010,3 hPa 0,0 mm 0,0 km/h (0 Bft) S-SW 202 9,2 C 0,0 km/h (0 Bft)
14.09.2015 12:50 11,7 C 11,8 C 84 % 1010,3 hPa 0,0 mm 0,0 km/h (0 Bft) S 180 9,1 C 0,0 km/h (0 Bft)
14.09.2015 12:55 11,9 C 12,1 C 84 % 1010,4 hPa 0,0 mm 0,0 km/h (0 Bft) S-SO 157 9,3 C 0,0 km/h (0 Bft)
14.09.2015 13:00 12,1 C 12,7 C 84 % 1010,4 hPa 0,0 mm 0,0 km/h (0 Bft) N-NW 337 9,5 C 3,1 km/h (1 Bft)
14.09.2015 13:05 12,2 C 12,7 C 84 % 1010,4 hPa 0,0 mm 0,3 km/h (0 Bft) W-SW 247 9,6 C 0,0 km/h (0 Bft)
14.09.2015 13:10 12,2 C 12,7 C 84 % 1010,4 hPa 0,0 mm 0,8 km/h (0 Bft) NW 315 9,6 C 7,0 km/h (2 Bft)
14.09.2015 13:15 12,2 C 12,5 C 84 % 1010,7 hPa 0,0 mm 1,0 km/h (0 Bft) SO 135 9,6 C 0,0 km/h (0 Bft)
14.09.2015 13:20 12,2 C 12,2 C 86 % 1010,7 hPa 0,0 mm 1,0 km/h (0 Bft) O-SO 112 9,9 C 0,0 km/h (0 Bft)
14.09.2015 13:25 12,2 C 12,3 C 84 % 1010,7 hPa 0,0 mm 0,3 km/h (0 Bft) O-NO 67 9,6 C 0,0 km/h (0 Bft)
14.09.2015 13:30 12,4 C 12,9 C 84 % 1010,7 hPa 0,0 mm 0,8 km/h (0 Bft) O-SO 112 9,8 C 4,7 km/h (1 Bft)
14.09.2015 13:35 12,6 C 13,1 C 84 % 1010,4 hPa 0,0 mm 1,6 km/h (1 Bft) W-SW 247 10,0 C 2,8 km/h (1 Bft)
14.09.2015 13:40 12,9 C 13,5 C 84 % 1010,4 hPa 0,0 mm 2,1 km/h (1 Bft) W 270 10,3 C 0,0 km/h (0 Bft)
14.09.2015 13:45 13,2 C 14,1 C 84 % 1010,4 hPa 0,0 mm 1,3 km/h (1 Bft) W-SW 247 10,6 C 2,6 km/h (1 Bft)
14.09.2015 13:50 13,4 C 14,0 C 83 % 1010,4 hPa 0,0 mm 2,3 km/h (1 Bft) S 180 10,6 C 3,9 km/h (1 Bft)
14.09.2015 13:55 13,5 C 13,9 C 83 % 1010,8 hPa 0,0 mm 2,8 km/h (1 Bft) O 90 10,7 C 0,0 km/h (0 Bft)
14.09.2015 14:00 13,5 C 14,0 C 83 % 1010,8 hPa 0,0 mm 1,6 km/h (1 Bft) S 180 10,7 C 0,0 km/h (0 Bft)
14.09.2015 14:05 13,6 C 14,1 C 84 % 1010,8 hPa 0,0 mm 0,5 km/h (0 Bft) S 180 10,9 C 0,0 km/h (0 Bft)
14.09.2015 14:10 13,6 C 14,2 C 84 % 1010,8 hPa 0,0 mm 0,0 km/h (0 Bft) S 180 10,9 C 0,0 km/h (0 Bft)
14.09.2015 14:15 13,7 C 14,2 C 84 % 1010,8 hPa 0,0 mm 0,3 km/h (0 Bft) W 270 11,0 C 5,7 km/h (1 Bft)
14.09.2015 14:20 13,9 C 14,2 C 84 % 1010,8 hPa 0,0 mm 0,5 km/h (0 Bft) SW 225 11,2 C 3,9 km/h (1 Bft)
14.09.2015 14:25 14,0 C 14,3 C 83 % 1010,8 hPa 0,0 mm 1,8 km/h (1 Bft) O-SO 112 11,2 C 0,0 km/h (0 Bft)
14.09.2015 14:30 14,1 C 14,4 C 83 % 1010,8 hPa 0,0 mm 1,8 km/h (1 Bft) N-NO 22 11,3 C 0,0 km/h (0 Bft)
14.09.2015 14:35 14,1 C 14,3 C 83 % 1011,1 hPa 0,0 mm 0,3 km/h (0 Bft) S 180 11,3 C 0,0 km/h (0 Bft)
14.09.2015 14:40 13,8 C 14,2 C 83 % 1011,1 hPa 0,0 mm 0,5 km/h (0 Bft) S-SO 157 11,0 C 0,0 km/h (0 Bft)
14.09.2015 14:45 13,8 C 14,1 C 83 % 1011,1 hPa 0,0 mm 1,3 km/h (1 Bft) S 180 11,0 C 0,0 km/h (0 Bft)
14.09.2015 14:50 13,7 C 14,1 C 83 % 1011,1 hPa 0,0 mm 1,0 km/h (0 Bft) O 90 10,9 C 0,0 km/h (0 Bft)
14.09.2015 14:55 13,6 C 14,3 C 83 % 1010,6 hPa 0,0 mm 0,0 km/h (0 Bft) S 180 10,8 C 0,0 km/h (0 Bft)
14.09.2015 15:00 13,3 C 14,4 C 83 % 1010,6 hPa 0,0 mm 0,0 km/h (0 Bft) O-SO 112 10,5 C 0,0 km/h (0 Bft)
14.09.2015 15:05 13,2 C 14,3 C 83 % 1010,6 hPa 0,0 mm 0,0 km/h (0 Bft) O-NO 67 10,4 C 0,0 km/h (0 Bft)
14.09.2015 15:10 13,5 C 14,4 C 83 % 1010,6 hPa 0,0 mm 0,3 km/h (0 Bft) N-NO 22 10,7 C 4,4 km/h (1 Bft)
14.09.2015 15:15 13,8 C 14,7 C 83 % 1010,7 hPa 0,0 mm 0,3 km/h (0 Bft) N-NO 22 11,0 C 0,0 km/h (0 Bft)
14.09.2015 15:20 14,1 C 15,4 C 83 % 1010,7 hPa 0,0 mm 0,3 km/h (0 Bft) N-NO 22 11,3 C 0,0 km/h (0 Bft)
14.09.2015 15:25 14,1 C 16,1 C 83 % 1010,7 hPa 0,0 mm 0,0 km/h (0 Bft) SO 135 11,3 C 0,0 km/h (0 Bft)
14.09.2015 15:30 14,1 C 16,4 C 83 % 1010,7 hPa 0,0 mm 0,3 km/h (0 Bft) O-SO 112 11,3 C 0,0 km/h (0 Bft)
14.09.2015 15:35 14,5 C 17,2 C 83 % 1010,1 hPa 0,0 mm 0,5 km/h (0 Bft) O-NO 67 11,6 C 2,6 km/h (1 Bft)
14.09.2015 15:40 14,8 C 18,2 C 83 % 1010,1 hPa 0,0 mm 0,5 km/h (0 Bft) O-SO 112 11,9 C 3,6 km/h (1 Bft)
14.09.2015 15:45 15,5 C 19,7 C 83 % 1010,1 hPa 0,0 mm 1,0 km/h (0 Bft) O-NO 67 12,6 C 3,9 km/h (1 Bft)
14.09.2015 15:50 15,6 C 21,4 C 82 % 1010,1 hPa 0,0 mm 1,0 km/h (0 Bft) SO 135 12,5 C 0,0 km/h (0 Bft)
14.09.2015 15:55 16,1 C 21,7 C 81 % 1010,0 hPa 0,0 mm 1,0 km/h (0 Bft) O-NO 67 12,8 C 5,2 km/h (1 Bft)
14.09.2015 16:00 16,1 C 22,6 C 80 % 1010,0 hPa 0,0 mm 0,5 km/h (0 Bft) N-NO 22 12,6 C 0,0 km/h (0 Bft)
14.09.2015 16:05 15,9 C 21,9 C 81 % 1010,0 hPa 0,0 mm 0,5 km/h (0 Bft) N 360 12,6 C 0,0 km/h (0 Bft)
14.09.2015 16:10 15,6 C 20,6 C 80 % 1010,0 hPa 0,0 mm 0,8 km/h (0 Bft) O-NO 67 12,2 C 3,1 km/h (1 Bft)
14.09.2015 16:14 15,6 C 19,9 C 80 % 1010,4 hPa 0,0 mm 0,5 km/h (0 Bft) O-NO 67 12,2 C 0,0 km/h (0 Bft)
14.09.2015 16:15 15,6 C 19,9 C 80 % 1010,4 hPa 0,0 mm 0,5 km/h (0 Bft) O-NO 67 12,2 C 0,0 km/h (0 Bft)
14.09.2015 16:20 15,3 C 19,2 C 79 % 1010,4 hPa 0,0 mm 0,5 km/h (0 Bft) O-NO 67 11,7 C 0,0 km/h (0 Bft)
14.09.2015 16:25 15,1 C 18,5 C 79 % 1010,4 hPa 0,0 mm 0,5 km/h (0 Bft) NO 45 11,5 C 3,6 km/h (1 Bft)
14.09.2015 16:30 15,1 C 18,2 C 79 % 1010,4 hPa 0,0 mm 0,3 km/h (0 Bft) N-NO 22 11,5 C 0,0 km/h (0 Bft)
14.09.2015 16:35 15,0 C 18,1 C 79 % 1010,4 hPa 0,0 mm 0,3 km/h (0 Bft) O-NO 67 11,4 C 0,0 km/h (0 Bft)
14.09.2015 16:40 14,7 C 17,6 C 79 % 1010,4 hPa 0,0 mm 0,0 km/h (0 Bft) O-NO 67 11,1 C 0,0 km/h (0 Bft)
14.09.2015 16:45 14,4 C 17,1 C 80 % 1010,4 hPa 0,0 mm 0,0 km/h (0 Bft) O-NO 67 11,0 C 0,0 km/h (0 Bft)
14.09.2015 16:50 14,2 C 16,4 C 80 % 1010,4 hPa 0,0 mm 0,0 km/h (0 Bft) O-NO 67 10,8 C 0,0 km/h (0 Bft)
14.09.2015 16:55 14,1 C 16,1 C 80 % 1010,4 hPa 0,0 mm 0,3 km/h (0 Bft) O-SO 112 10,7 C 2,6 km/h (1 Bft)
14.09.2015 17:00 13,8 C 15,6 C 80 % 1010,4 hPa 0,0 mm 0,5 km/h (0 Bft) O-SO 112 10,4 C 0,0 km/h (0 Bft)
14.09.2015 17:05 13,3 C 15,2 C 80 % 1010,4 hPa 0,0 mm 1,0 km/h (0 Bft) O-NO 67 9,9 C 5,4 km/h (1 Bft)
14.09.2015 17:10 13,5 C 14,7 C 80 % 1010,4 hPa 0,0 mm 2,8 km/h (1 Bft) O-SO 112 10,1 C 5,2 km/h (1 Bft)
14.09.2015 17:15 13,6 C 14,7 C 80 % 1010,3 hPa 0,0 mm 2,6 km/h (1 Bft) S 180 10,2 C 0,0 km/h (0 Bft)
14.09.2015 17:20 14,0 C 15,4 C 80 % 1010,3 hPa 0,0 mm 0,5 km/h (0 Bft) S 180 10,6 C 0,0 km/h (0 Bft)
14.09.2015 17:25 14,1 C 15,8 C 80 % 1010,3 hPa 0,0 mm 0,0 km/h (0 Bft) S 180 10,7 C 0,0 km/h (0 Bft)
14.09.2015 17:30 14,1 C 16,1 C 80 % 1010,3 hPa 0,0 mm 0,3 km/h (0 Bft) N-NW 337 10,7 C 3,4 km/h (1 Bft)
14.09.2015 17:35 14,1 C 16,0 C 80 % 1010,5 hPa 0,0 mm 0,5 km/h (0 Bft) O 90 10,7 C 0,0 km/h (0 Bft)
14.09.2015 17:40 14,2 C 16,2 C 80 % 1010,5 hPa 0,0 mm 0,3 km/h (0 Bft) O 90 10,8 C 0,0 km/h (0 Bft)
14.09.2015 17:45 14,4 C 16,5 C 80 % 1010,5 hPa 0,0 mm 0,0 km/h (0 Bft) NO 45 11,0 C 0,0 km/h (0 Bft)
14.09.2015 17:50 14,4 C 16,4 C 79 % 1010,5 hPa 0,0 mm 0,3 km/h (0 Bft) O 90 10,8 C 0,0 km/h (0 Bft)
14.09.2015 17:55 14,1 C 16,0 C 79 % 1010,1 hPa 0,0 mm 0,8 km/h (0 Bft) O-SO 112 10,5 C 0,0 km/h (0 Bft)
14.09.2015 18:00 14,1 C 15,7 C 79 % 1010,1 hPa 0,0 mm 1,0 km/h (0 Bft) SO 135 10,5 C 0,0 km/h (0 Bft)
14.09.2015 18:05 14,2 C 15,8 C 79 % 1010,1 hPa 0,0 mm 0,5 km/h (0 Bft) O-SO 112 10,6 C 0,0 km/h (0 Bft)
14.09.2015 18:10 14,6 C 16,3 C 79 % 1010,1 hPa 0,0 mm 0,0 km/h (0 Bft) O-NO 67 11,0 C 0,0 km/h (0 Bft)
14.09.2015 18:15 14,6 C 16,5 C 79 % 1010,2 hPa 0,0 mm 0,0 km/h (0 Bft) N-NO 22 11,0 C 0,0 km/h (0 Bft)
14.09.2015 18:20 14,5 C 16,1 C 79 % 1010,2 hPa 0,0 mm 0,3 km/h (0 Bft) O-NO 67 10,9 C 0,0 km/h (0 Bft)
14.09.2015 18:25 14,2 C 15,8 C 79 % 1010,2 hPa 0,0 mm 0,3 km/h (0 Bft) NW 315 10,6 C 0,0 km/h (0 Bft)
14.09.2015 18:30 13,9 C 15,2 C 79 % 1010,2 hPa 0,0 mm 0,3 km/h (0 Bft) W-NW 292 10,3 C 0,0 km/h (0 Bft)
14.09.2015 18:35 13,9 C 14,9 C 79 % 1010,2 hPa 0,0 mm 0,3 km/h (0 Bft) W-SW 247 10,3 C 0,0 km/h (0 Bft)
14.09.2015 18:40 13,7 C 14,6 C 79 % 1010,2 hPa 0,0 mm 0,3 km/h (0 Bft) S 180 10,1 C 0,0 km/h (0 Bft)
14.09.2015 18:45 13,6 C 14,3 C 79 % 1010,2 hPa 0,0 mm 0,0 km/h (0 Bft) S 180 10,0 C 0,0 km/h (0 Bft)
14.09.2015 18:50 13,1 C 13,8 C 79 % 1010,2 hPa 0,0 mm 0,0 km/h (0 Bft) N-NO 22 9,5 C 0,0 km/h (0 Bft)
14.09.2015 18:55 12,7 C 13,4 C 79 % 1010,3 hPa 0,0 mm 0,0 km/h (0 Bft) NW 315 9,2 C 0,0 km/h (0 Bft)
14.09.2015 19:00 12,4 C 12,7 C 79 % 1010,3 hPa 0,0 mm 0,0 km/h (0 Bft) O 90 8,9 C 0,0 km/h (0 Bft)
14.09.2015 19:05 12,3 C 12,3 C 80 % 1010,3 hPa 0,0 mm 0,0 km/h (0 Bft) W-SW 247 8,9 C 0,0 km/h (0 Bft)
14.09.2015 19:10 12,1 C 12,0 C 79 % 1010,3 hPa 0,0 mm 0,5 km/h (0 Bft) W 270 8,6 C 0,0 km/h (0 Bft)
14.09.2015 19:15 12,0 C 11,9 C 79 % 1010,6 hPa 0,0 mm 0,5 km/h (0 Bft) S 180 8,5 C 0,0 km/h (0 Bft)
14.09.2015 19:20 11,6 C 11,5 C 80 % 1010,6 hPa 0,0 mm 0,0 km/h (0 Bft) S 180 8,3 C 0,0 km/h (0 Bft)
14.09.2015 19:25 11,5 C 11,4 C 81 % 1010,6 hPa 0,0 mm 0,0 km/h (0 Bft) S 180 8,4 C 0,0 km/h (0 Bft)
14.09.2015 19:30 11,4 C 11,3 C 81 % 1010,6 hPa 0,0 mm 0,0 km/h (0 Bft) N-NO 22 8,3 C 0,0 km/h (0 Bft)
14.09.2015 19:35 11,4 C 11,2 C 82 % 1010,8 hPa 0,0 mm 0,0 km/h (0 Bft) N-NO 22 8,4 C 0,0 km/h (0 Bft)
14.09.2015 19:40 11,4 C 11,2 C 82 % 1010,8 hPa 0,0 mm 0,0 km/h (0 Bft) W 270 8,4 C 0,0 km/h (0 Bft)
14.09.2015 19:45 11,5 C 11,3 C 83 % 1010,8 hPa 0,0 mm 0,3 km/h (0 Bft) S 180 8,7 C 0,0 km/h (0 Bft)
14.09.2015 19:50 11,7 C 11,5 C 84 % 1010,8 hPa 0,0 mm 0,3 km/h (0 Bft) S 180 9,1 C 0,0 km/h (0 Bft)
14.09.2015 19:55 11,6 C 11,4 C 84 % 1011,0 hPa 0,0 mm 0,0 km/h (0 Bft) S 180 9,0 C 0,0 km/h (0 Bft)
14.09.2015 20:00 11,7 C 11,5 C 84 % 1011,0 hPa 0,0 mm 0,5 km/h (0 Bft) W 270 9,1 C 5,7 km/h (1 Bft)
14.09.2015 20:05 12,0 C 11,8 C 84 % 1011,0 hPa 0,0 mm 2,3 km/h (1 Bft) W 270 9,4 C 11,4 km/h (2 Bft)
14.09.2015 20:10 12,5 C 12,3 C 84 % 1011,0 hPa 0,0 mm 8,5 km/h (2 Bft) S-SO 157 9,9 C 2,8 km/h (1 Bft)
14.09.2015 20:15 12,3 C 12,1 C 85 % 1011,3 hPa 0,0 mm 8,0 km/h (2 Bft) SO 135 9,9 C 3,9 km/h (1 Bft)
14.09.2015 20:20 11,9 C 11,7 C 85 % 1011,3 hPa 0,0 mm 4,4 km/h (1 Bft) S 180 9,5 C 7,3 km/h (2 Bft)
14.09.2015 20:25 11,7 C 11,5 C 85 % 1011,3 hPa 0,7 mm 4,7 km/h (1 Bft) SW 225 9,3 C 7,3 km/h (2 Bft)
14.09.2015 20:30 11,3 C 11,2 C 85 % 1011,3 hPa 0,0 mm 2,8 km/h (1 Bft) SO 135 8,9 C 2,6 km/h (1 Bft)
14.09.2015 20:35 11,3 C 11,1 C 86 % 1012,1 hPa 0,0 mm 1,8 km/h (1 Bft) SO 135 9,0 C 0,0 km/h (0 Bft)
14.09.2015 20:40 11,2 C 11,1 C 87 % 1012,1 hPa 0,0 mm 0,0 km/h (0 Bft) SO 135 9,1 C 0,0 km/h (0 Bft)
14.09.2015 20:45 11,3 C 11,1 C 87 % 1012,1 hPa 0,0 mm 0,3 km/h (0 Bft) W-SW 247 9,2 C 0,0 km/h (0 Bft)
14.09.2015 20:50 11,5 C 11,3 C 88 % 1012,1 hPa 0,0 mm 3,4 km/h (1 Bft) W-SW 247 9,6 C 6,0 km/h (2 Bft)
14.09.2015 20:55 11,6 C 11,4 C 88 % 1013,1 hPa 0,0 mm 4,7 km/h (1 Bft) W 270 9,7 C 6,2 km/h (2 Bft)
14.09.2015 21:00 11,8 C 11,6 C 88 % 1013,1 hPa 0,0 mm 4,4 km/h (1 Bft) NW 315 9,9 C 6,5 km/h (2 Bft)
14.09.2015 21:05 11,9 C 11,6 C 87 % 1013,1 hPa 0,0 mm 4,7 km/h (1 Bft) S 180 9,8 C 9,1 km/h (2 Bft)
14.09.2015 21:10 12,1 C 11,8 C 86 % 1013,1 hPa 0,0 mm 6,7 km/h (2 Bft) S 180 9,8 C 5,2 km/h (1 Bft)
14.09.2015 21:15 12,0 C 11,7 C 86 % 1013,2 hPa 0,0 mm 7,0 km/h (2 Bft) S-SW 202 9,7 C 12,4 km/h (3 Bft)
14.09.2015 21:20 11,9 C 11,6 C 86 % 1013,2 hPa 0,0 mm 5,2 km/h (1 Bft) W-NW 292 9,6 C 22,8 km/h (4 Bft)
14.09.2015 21:25 11,8 C 11,5 C 85 % 1013,2 hPa 0,0 mm 5,4 km/h (1 Bft) W-NW 292 9,4 C 9,1 km/h (2 Bft)
14.09.2015 21:30 11,7 C 11,4 C 85 % 1013,2 hPa 0,0 mm 6,2 km/h (2 Bft) W 270 9,3 C 8,8 km/h (2 Bft)
14.09.2015 21:35 11,7 C 11,4 C 85 % 1013,2 hPa 0,0 mm 4,7 km/h (1 Bft) S-SW 202 9,3 C 4,7 km/h (1 Bft)
14.09.2015 21:40 11,6 C 11,3 C 85 % 1013,2 hPa 0,0 mm 2,1 km/h (1 Bft) O-NO 67 9,2 C 0,0 km/h (0 Bft)
14.09.2015 21:45 11,5 C 11,2 C 85 % 1013,2 hPa 0,0 mm 1,6 km/h (1 Bft) O-SO 112 9,1 C 0,0 km/h (0 Bft)
14.09.2015 21:50 11,5 C 11,2 C 85 % 1013,2 hPa 0,0 mm 2,8 km/h (1 Bft) S 180 9,1 C 0,0 km/h (0 Bft)
14.09.2015 21:55 11,5 C 11,2 C 85 % 1012,9 hPa 0,0 mm 3,9 km/h (1 Bft) W-SW 247 9,1 C 2,8 km/h (1 Bft)
14.09.2015 22:00 11,5 C 11,2 C 85 % 1012,9 hPa 0,0 mm 2,3 km/h (1 Bft) NO 45 9,1 C 6,0 km/h (2 Bft)
14.09.2015 22:05 11,5 C 11,2 C 85 % 1012,9 hPa 0,0 mm 3,1 km/h (1 Bft) SW 225 9,1 C 8,5 km/h (2 Bft)
14.09.2015 22:10 11,5 C 11,4 C 84 % 1012,9 hPa 0,0 mm 4,1 km/h (1 Bft) W 270 8,9 C 0,0 km/h (0 Bft)
14.09.2015 22:15 11,4 C 11,3 C 84 % 1013,0 hPa 0,0 mm 2,3 km/h (1 Bft) W-SW 247 8,8 C 0,0 km/h (0 Bft)
14.09.2015 22:20 11,4 C 11,3 C 84 % 1013,0 hPa 0,0 mm 1,0 km/h (0 Bft) S 180 8,8 C 2,8 km/h (1 Bft)
14.09.2015 22:25 11,4 C 11,3 C 84 % 1013,0 hPa 0,0 mm 1,6 km/h (1 Bft) SW 225 8,8 C 3,4 km/h (1 Bft)
14.09.2015 22:30 11,5 C 11,4 C 83 % 1013,0 hPa 0,0 mm 2,3 km/h (1 Bft) W 270 8,7 C 0,0 km/h (0 Bft)
14.09.2015 22:35 11,4 C 11,3 C 83 % 1012,9 hPa 0,0 mm 2,1 km/h (1 Bft) S 180 8,6 C 3,6 km/h (1 Bft)
14.09.2015 22:40 11,4 C 11,4 C 83 % 1012,9 hPa 0,0 mm 1,6 km/h (1 Bft) SO 135 8,6 C 0,0 km/h (0 Bft)
14.09.2015 22:45 11,3 C 11,3 C 83 % 1012,9 hPa 0,0 mm 1,0 km/h (0 Bft) S 180 8,5 C 0,0 km/h (0 Bft)
14.09.2015 22:50 11,2 C 11,2 C 84 % 1012,9 hPa 0,0 mm 0,8 km/h (0 Bft) SO 135 8,6 C 2,8 km/h (1 Bft)
14.09.2015 22:55 11,2 C 11,2 C 84 % 1013,0 hPa 0,0 mm 1,6 km/h (1 Bft) S-SO 157 8,6 C 0,0 km/h (0 Bft)
14.09.2015 23:00 11,2 C 11,2 C 84 % 1013,0 hPa 0,0 mm 1,0 km/h (0 Bft) O-SO 112 8,6 C 0,0 km/h (0 Bft)
14.09.2015 23:05 11,1 C 11,1 C 84 % 1013,0 hPa 0,0 mm 0,3 km/h (0 Bft) S-SW 202 8,5 C 0,0 km/h (0 Bft)
14.09.2015 23:10 11,2 C 11,2 C 84 % 1013,0 hPa 0,0 mm 1,8 km/h (1 Bft) SW 225 8,6 C 5,2 km/h (1 Bft)
14.09.2015 23:15 11,1 C 11,2 C 84 % 1012,9 hPa 0,0 mm 2,8 km/h (1 Bft) SW 225 8,5 C 5,4 km/h (1 Bft)
14.09.2015 23:20 11,2 C 11,2 C 83 % 1012,9 hPa 0,0 mm 2,6 km/h (1 Bft) SO 135 8,4 C 0,0 km/h (0 Bft)
14.09.2015 23:25 11,2 C 11,2 C 83 % 1012,9 hPa 0,0 mm 2,1 km/h (1 Bft) SW 225 8,4 C 4,1 km/h (1 Bft)
14.09.2015 23:30 11,0 C 11,2 C 84 % 1012,9 hPa 0,0 mm 0,8 km/h (0 Bft) SW 225 8,4 C 0,0 km/h (0 Bft)
14.09.2015 23:35 11,0 C 11,1 C 84 % 1012,8 hPa 0,0 mm 0,3 km/h (0 Bft) S-SO 157 8,4 C 0,0 km/h (0 Bft)
14.09.2015 23:40 11,0 C 11,0 C 84 % 1012,8 hPa 0,0 mm 0,0 km/h (0 Bft) SO 135 8,4 C 0,0 km/h (0 Bft)
14.09.2015 23:45 10,9 C 11,0 C 82 % 1012,8 hPa 0,0 mm 0,0 km/h (0 Bft) W-SW 247 7,9 C 0,0 km/h (0 Bft)
14.09.2015 23:50 10,9 C 11,0 C 82 % 1012,8 hPa 0,0 mm 0,0 km/h (0 Bft) S-SO 157 7,9 C 0,0 km/h (0 Bft)
14.09.2015 23:55 10,9 C 11,0 C 82 % 1012,9 hPa 0,0 mm 0,3 km/h (0 Bft) S-SW 202 7,9 C 0,0 km/h (0 Bft)
_ Min-Zeit 23:55 12:00 02:05 03:30 - 23:50 - - 01:00 23:55
Minimum _ 10,9 C 10,8 C 59 % 1007,4 hPa - 0,0 km/h (0 Bft) - - 7,9 C 0,0 km/h (0 Bft)
_ Max-Zeit 02:00 16:00 21:00 21:50 20:25 06:25 - - 15:55 06:30
Maximum _ 16,4 C 22,6 C 88 % 1013,2 hPa 0,7 mm 12,7 km/h
SW (3 Bft)
- - 12,8 C 30,8 km/h
S-SO (5 Bft)
Durchschnitt _ 13,1 C 13,6 C 79 % 1010,1 hPa #10,3 mm 2,7 km/h (1 Bft) S - 9,5 C 3,9 km/h (1 Bft)